Temperature
27 26 25 24 23 22 21 21 21 21 20 20 19 19 19 19 19 19 19 19 19 18 18 18 18 18 18 18 18 18 18 18 18 18 18 19 19 19 19 19 19 19 19
27 26 25 24 23 22 22 21 21 21 21 20 20 20 20 19 19 19 19 19 19 19 18 18 18 18 18 18 18 18 18 18 18 18 18 18 19 19 19 19 19 19 19
28 26 25 25 24 23 22 22 22 21 21 21 20 20 20 20 20 19 19 19 19 19 19 18 18 18 18 18 18 18 18 18 18 18 18 18 18 19 19 19 19 19 19
29 27 26 25 25 24 23 22 22 22 21 21 20 20 20 20 20 20 19 19 19 19 19 19 19 18 18 18 18 18 18 18 18 18 18 18 18 18 18 19 19 19 19
30 28 27 26 25 24 23 23 22 22 22 21 21 20 20 20 20 20 19 19 19 19 19 19 19 19 18 18 18 18 18 18 18 18 18 18 18 18 18 18 19 19 19
30 29 28 27 26 25 24 23 23 22 22 22 21 21 20 20 20 20 20 19 19 19 19 19 19 19 18 18 18 18 18 18 18 18 18 18 18 18 18 18 18 18 18
30 29 28 27 26 25 24 24 23 23 22 22 22 21 21 20 20 20 20 19 19 19 19 19 19 19 19 19 19 18 18 18 18 18 18 18 18 18 18 18 18 18 18
30 29 28 27 26 25 25 24 23 23 23 22 22 21 21 21 20 20 20 20 20 19 19 19 19 19 19 19 19 18 18 18 18 18 18 18 18 18 18 17 17 17 18
30 29 28 27 26 25 25 24 23 23 23 22 22 22 21 21 21 20 20 20 20 20 20 19 19 19 19 19 18 18 18 18 18 18 18 18 18 18 17 17 17 17 17
30 29 28 27 26 25 25 24 23 23 23 22 22 21 21 21 21 21 20 20 20 20 20 19 19 19 19 19 18 18 18 18 18 18 18 18 18 17 17 17 17 17 17
30 29 28 27 26 25 25 24 23 23 22 22 22 21 21 21 21 21 21 20 20 20 20 19 19 19 19 19 18 18 18 18 18 18 17 17 17 17 17 17 17 17 17
29 29 28 27 26 25 24 24 23 23 22 22 22 21 21 21 21 21 21 20 20 20 19 19 19 19 19 18 18 18 18 18 18 17 17 17 17 17 17 17 16 16 16
28 28 27 26 25 25 24 24 23 23 22 22 22 21 21 21 21 21 20 20 20 20 19 19 19 19 19 18 18 18 18 18 18 17 17 17 17 17 17 16 16 16 16
27 27 26 25 25 24 24 23 23 22 22 22 22 21 21 21 21 21 20 20 20 20 19 19 19 19 19 18 18 18 18 18 17 17 17 17 17 17 17 16 16 16 16
26 26 25 24 24 24 23 23 23 22 22 22 22 21 21 21 20 20 20 20 20 19 19 19 19 19 18 18 18 18 18 18 17 17 17 17 17 17 16 16 16 16 16
25 25 24 23 23 23 23 22 22 22 22 22 21 21 21 20 20 20 20 20 19 19 19 19 19 19 18 18 18 18 18 17 17 17 17 17 17 16 16 16 16 16 15
24 23 23 23 23 22 22 22 22 21 21 21 21 21 20 20 20 19 19 19 19 19 19 18 18 18 18 18 18 17 17 17 17 17 17 16 16 16 16 16 15 15 15
23 23 23 22 22 22 22 21 21 21 21 21 20 20 20 19 19 19 19 19 19 19 18 18 18 18 18 18 17 17 17 17 17 17 16 16 16 16 16 15 15 15 15
22 22 22 22 21 21 21 21 20 20 20 20 20 19 19 19 19 19 19 18 18 18 18 18 18 18 18 17 17 17 17 17 17 16 16 16 16 16 16 15 15 14 14
21 21 21 21 20 20 20 20 20 20 20 20 19 19 19 19 19 18 18 18 18 18 17 17 17 17 17 17 17 17 16 16 16 16 16 16 15 15 15 15 14 14 14
21 20 20 20 20 19 19 19 19 19 19 19 19 19 18 18 18 18 18 18 17 17 17 17 17 17 17 16 16 16 16 16 15 15 15 15 15 15 15 14 14 13 13
20 20 19 19 19 19 18 18 18 18 18 18 18 18 18 17 17 17 17 17 17 17 16 16 16 16 16 16 16 16 16 15 15 15 15 15 15 14 14 14 13 13 13
19 18 18 18 18 18 17 17 17 17 17 17 17 17 17 17 17 17 16 16 16 16 16 16 16 15 16 16 15 15 15 15 14 14 14 14 14 14 13 13 13 12 12
18 18 17 17 17 16 16 16 16 16 16 16 16 16 16 16 16 16 16 16 15 15 15 15 15 15 15 15 15 15 14 14 14 14 13 13 13 13 13 12 12 12 12
17 17 16 16 16 16 16 16 16 16 15 15 15 15 16 16 15 15 15 15 15 15 15 15 15 14 14 15 15 15 14 14 13 13 13 13 13 12 12 12 12 12 11
16 16 15 15 15 15 15 15 15 15 15 15 15 15 15 15 15 15 15 15 15 15 15 15 14 14 14 14 14 14 14 13 13 13 12 12 12 12 12 12 12 11 11
Wind_Speed
15 15 14 14 14 12 11 9 9 8 6 5 5 5 5 4 4 4 7 7 7 6 4 3 3 3 3 3 3 2 4 4 3 3 4 5 6 7 6 6 5 6 9
16 15 15 14 15 13 12 11 9 9 8 6 4 3 3 3 4 3 5 7 7 7 6 5 4 4 3 3 3 3 3 3 3 2 2 3 3 3 6 4 5 5 4
18 17 16 15 15 14 13 12 11 10 9 8 5 4 3 3 2 4 4 5 7 7 5 5 5 4 4 3 4 4 5 3 3 3 2 2 2 3 3 4 4 4 4
18 18 17 15 16 15 14 11 11 10 9 8 7 7 5 5 4 4 4 5 6 6 6 6 5 4 3 3 4 4 4 4 4 2 3 4 2 2 3 3 3 3 3
17 19 19 16 16 16 15 13 11 10 10 9 8 7 6 5 4 4 4 4 5 5 6 5 4 4 4 4 3 2 3 3 3 3 3 3 3 4 3 4 3 3 3
15 16 17 15 14 14 14 14 13 11 10 10 8 8 7 5 3 3 4 4 4 5 6 5 5 5 4 4 3 3 4 4 3 3 3 3 2 3 3 4 4 4 4
13 13 14 15 14 14 14 14 14 12 12 11 9 8 7 6 5 5 5 5 4 4 6 6 5 4 4 4 4 4 4 4 4 4 4 3 3 3 3 3 4 3 4
13 14 13 12 11 13 13 13 14 13 12 11 9 8 8 7 6 7 5 5 4 4 5 6 5 5 4 4 4 4 5 4 4 5 4 3 3 3 2 2 2 3 3
11 13 13 13 12 11 11 11 12 12 11 11 9 8 8 7 6 6 6 5 4 4 5 6 6 5 5 5 4 3 3 3 3 3 3 2 3 2 2 3 2 2 4
10 11 12 12 12 12 10 10 11 10 10 10 10 9 9 8 6 5 5 5 4 4 4 5 5 5 5 5 4 3 3 3 3 2 2 2 2 2 2 3 2 2 3
7 9 10 11 11 11 10 10 10 10 9 9 8 7 8 8 7 6 6 5 4 4 4 5 5 5 5 5 4 5 4 4 3 2 2 1 1 2 2 2 3 3 2
5 8 9 9 8 9 10 9 10 10 10 9 7 7 6 7 7 7 6 6 5 5 5 5 5 5 5 5 5 5 4 3 3 2 1 1 1 1 2 2 3 3 2
6 6 7 7 7 7 7 8 8 9 9 8 7 6 6 6 6 6 6 5 6 5 6 6 6 5 5 4 4 4 3 3 2 2 1 1 1 2 2 2 3 3 3
5 5 6 5 4 4 4 5 6 6 7 7 8 7 7 6 6 6 5 6 6 6 6 6 6 6 5 4 4 4 4 3 2 1 1 0 0 1 2 3 2 2 3
5 6 6 4 4 3 3 3 4 4 5 6 7 8 7 6 6 6 6 6 6 7 6 6 6 5 5 5 5 4 4 3 2 2 2 1 2 1 1 2 2 3 3
5 5 4 4 3 2 2 2 3 3 5 6 8 7 6 6 6 6 6 6 6 5 6 6 6 6 5 5 5 4 4 4 3 3 2 3 3 2 1 0 1 1 2
3 3 2 1 2 2 2 2 3 3 4 5 6 6 6 6 6 7 6 6 6 5 5 5 5 5 4 6 6 5 5 5 4 3 3 3 2 2 1 2 2 1 2
2 2 3 2 1 1 1 0 2 3 4 4 4 5 6 6 6 6 6 6 5 5 5 5 5 5 4 6 6 6 5 5 4 3 3 2 2 1 1 1 1 1 1
4 3 3 3 2 1 1 2 2 2 4 4 4 4 5 6 6 7 6 5 4 5 5 5 5 5 4 5 5 5 4 4 4 3 2 2 3 2 2 1 2 1 1
4 3 4 3 3 2 2 2 3 3 3 4 4 4 5 6 6 6 5 4 4 4 4 4 4 5 4 5 6 5 4 4 4 4 4 3 3 3 1 1 2 2 2
4 3 3 3 3 3 2 3 3 3 3 3 3 3 4 5 6 5 4 5 5 5 5 4 4 4 5 5 5 5 4 4 4 4 4 3 5 4 2 2 2 2 3
4 4 3 3 3 3 3 3 4 3 3 3 3 3 4 5 4 4 5 5 5 6 6 6 5 4 4 5 6 7 5 4 3 3 4 4 7 5 4 3 3 3 3
4 4 4 4 3 3 3 4 3 3 3 3 3 3 3 4 4 5 5 4 4 4 5 5 4 4 3 4 6 7 6 5 3 2 5 6 7 6 5 6 4 3 2
4 4 4 4 4 4 4 4 3 2 3 4 3 3 3 3 3 3 4 4 4 4 5 4 4 4 4 4 4 5 5 5 4 3 5 6 6 5 4 4 4 4 3
3 4 4 4 4 4 4 4 3 3 4 4 4 4 3 2 2 2 2 3 3 4 4 4 4 5 5 5 6 5 5 5 5 4 3 3 4 4 4 4 4 4 3
4 4 4 5 5 4 4 4 3 3 4 4 4 4 3 3 3 2 1 2 2 3 3 3 3 3 4 5 6 6 6 6 6 5 4 5 5 5 5 5 4 4 3
Wind_Direction
179 173 175 172 170 168 169 173 181 174 183 188 192 191 196 200 192 190 179 188 193 193 201 225 198 223 220 212 221 226 232 236 233 251 274 260 240 225 223 223 227 220 213
178 174 178 179 176 173 173 176 182 178 186 191 195 199 200 210 194 192 171 182 188 196 207 205 215 220 222 223 230 233 249 256 229 226 267 282 284 255 237 217 224 232 223
180 177 183 185 181 177 178 185 184 181 189 187 189 202 191 219 209 184 182 189 190 198 213 198 220 226 223 211 217 228 236 251 255 227 231 261 271 296 276 246 227 213 217
181 178 182 189 186 181 181 178 175 178 182 189 200 199 199 205 208 193 186 188 191 202 208 204 211 219 231 216 222 216 232 241 257 260 238 246 265 278 300 295 274 237 228
183 179 184 188 187 182 178 175 172 177 180 190 201 208 213 214 209 189 180 192 197 206 209 203 205 210 225 228 225 216 240 251 252 260 263 257 252 240 248 277 289 290 257
183 181 182 178 182 179 176 173 172 177 182 190 198 203 214 221 220 196 183 196 200 205 204 201 198 207 222 220 213 222 234 240 253 263 270 269 260 249 243 260 276 276 272
177 176 176 176 177 178 177 173 172 179 184 190 198 201 208 212 213 214 206 210 209 202 197 200 185 202 217 218 213 220 234 232 236 245 258 268 273 278 270 270 278 285 285
177 176 174 170 173 178 176 173 172 178 184 189 194 197 202 210 211 215 221 208 212 208 182 176 181 193 208 224 208 223 229 220 227 247 249 261 269 271 274 269 279 291 289
174 172 170 170 170 173 171 171 168 175 183 188 188 193 198 206 214 206 208 217 217 203 175 175 187 197 205 220 222 225 239 226 227 249 251 251 278 276 276 266 252 265 286
164 166 166 169 172 174 168 164 164 173 181 186 192 195 194 200 209 209 210 213 213 210 174 180 192 199 202 207 214 225 226 217 225 230 253 277 291 305 297 298 295 269 269
155 156 158 162 165 166 165 167 166 171 178 188 194 195 190 196 200 203 209 213 215 202 193 195 200 201 203 206 207 220 212 215 225 244 235 250 288 322 316 313 309 308 297
115 138 144 143 152 161 166 169 174 180 184 186 187 193 190 193 200 205 204 202 203 204 201 202 202 205 206 200 205 221 216 212 217 231 247 274 287 304 303 309 301 296 284
96 110 125 138 151 159 161 168 181 185 184 182 182 187 195 199 204 204 202 200 200 206 206 202 203 206 202 197 200 207 207 212 218 223 223 260 307 308 316 299 306 310 308
92 101 108 110 118 135 142 157 175 183 184 184 187 187 196 204 208 208 202 199 199 202 201 201 202 198 194 194 197 199 199 200 196 188 194 200 249 316 304 287 304 306 308
86 86 94 100 113 121 131 148 166 172 183 184 193 192 193 201 206 205 203 202 203 205 195 200 200 193 194 201 197 199 199 185 184 195 189 153 107 83 330 308 333 327 311
59 64 82 103 112 130 151 159 177 183 185 188 198 193 189 193 195 198 200 200 198 201 196 198 194 193 201 172 171 186 179 178 184 196 195 174 146 158 176 308 333 305 302
50 32 42 80 144 147 147 175 185 188 194 199 198 189 190 193 193 197 194 197 197 197 199 205 193 181 178 165 158 182 183 178 182 190 203 228 170 171 193 213 213 217 253
58 39 8 360 8 49 48 286 217 193 195 206 208 191 189 195 197 200 199 203 200 198 198 199 193 182 187 170 167 181 186 181 182 188 196 190 137 59 11 265 229 235 250
42 27 354 337 355 341 323 301 251 222 211 209 213 204 199 204 205 205 205 204 200 202 199 195 188 184 185 180 173 180 189 194 193 181 163 161 142 97 28 283 254 252 270
29 9 348 344 346 341 312 285 269 254 240 231 223 211 204 208 211 207 198 196 200 205 199 193 189 184 181 177 175 191 199 200 194 167 144 125 132 130 106 287 285 270 271
0 353 354 343 342 332 308 278 275 266 267 272 247 227 207 208 208 197 196 193 194 192 191 189 190 184 179 174 179 193 214 208 198 186 175 169 161 157 179 254 277 264 280
353 347 352 347 343 333 311 288 281 286 287 276 264 250 236 233 215 198 202 197 195 191 188 184 183 179 173 172 190 194 215 234 205 193 175 169 168 176 198 226 265 274 276
347 342 341 343 342 335 322 299 300 304 297 283 261 252 251 239 206 193 196 190 191 201 201 195 187 180 179 177 179 187 203 228 210 180 163 163 174 189 206 220 232 238 248
336 332 333 332 331 332 325 314 309 299 284 278 269 251 234 227 203 192 192 189 198 206 200 199 198 191 192 188 191 198 200 202 198 187 169 169 183 207 216 195 211 218 238
315 317 314 309 306 311 311 309 312 310 291 280 260 241 234 213 196 199 222 204 192 203 206 207 201 200 208 204 187 196 206 207 208 188 179 187 188 197 200 201 202 206 218
314 306 300 300 298 297 295 295 298 289 277 268 260 250 239 222 205 184 166 52 162 169 171 179 183 205 189 170 171 183 193 191 188 185 193 197 200 203 202 202 203 202 211
Height
1507 1511 1514 1517 1520 1522 1524 1526 1527 1529 1531 1532 1534 1535 1536 1538 1539 1539 1540 1540 1541 1542 1543 1544 1545 1545 1546 1546 1547 1547 1548 1548 1549 1549 1549 1548 1548 1548 1548 1549 1549 1549 1550
1503 1508 1511 1515 1517 1519 1521 1523 1525 1527 1529 1531 1532 1534 1535 1536 1537 1538 1539 1539 1540 1541 1542 1542 1543 1544 1544 1545 1545 1546 1546 1547 1547 1548 1547 1546 1547 1546 1546 1546 1546 1547 1547
1498 1503 1508 1511 1514 1516 1519 1521 1523 1525 1527 1529 1531 1533 1534 1535 1536 1537 1537 1538 1539 1539 1540 1541 1542 1542 1543 1543 1543 1544 1544 1545 1545 1546 1546 1545 1544 1544 1544 1544 1544 1544 1544
1493 1498 1503 1508 1511 1513 1516 1519 1520 1523 1525 1527 1529 1531 1532 1533 1534 1535 1536 1536 1537 1538 1538 1539 1540 1541 1541 1542 1542 1542 1542 1543 1543 1544 1544 1545 1544 1544 1542 1542 1542 1542 1542
1487 1493 1498 1503 1507 1510 1513 1515 1518 1520 1522 1524 1526 1528 1530 1531 1532 1533 1534 1535 1535 1536 1536 1537 1538 1539 1539 1540 1540 1540 1541 1541 1541 1541 1542 1542 1542 1542 1542 1540 1540 1539 1539
1483 1488 1494 1499 1503 1507 1510 1512 1514 1517 1519 1521 1523 1525 1527 1529 1530 1531 1532 1532 1533 1534 1534 1535 1536 1537 1537 1538 1538 1538 1538 1538 1538 1539 1539 1540 1540 1540 1539 1538 1537 1537 1537
1479 1485 1490 1495 1499 1503 1507 1509 1511 1513 1516 1518 1520 1523 1525 1526 1528 1529 1530 1531 1532 1532 1533 1534 1534 1534 1535 1535 1535 1536 1536 1536 1536 1536 1536 1537 1537 1537 1537 1536 1535 1534 1534
1476 1481 1486 1491 1495 1499 1503 1506 1508 1510 1513 1515 1517 1520 1522 1524 1525 1526 1528 1529 1530 1531 1532 1532 1532 1532 1532 1533 1533 1534 1534 1534 1534 1534 1534 1534 1534 1534 1534 1534 1533 1532 1531
1472 1477 1482 1487 1492 1496 1499 1502 1505 1507 1510 1512 1515 1517 1519 1521 1522 1524 1525 1526 1528 1529 1529 1529 1530 1530 1530 1531 1531 1531 1532 1532 1532 1532 1532 1531 1531 1532 1531 1531 1531 1531 1529
1471 1475 1480 1484 1489 1493 1496 1500 1502 1504 1507 1510 1512 1514 1516 1517 1519 1521 1523 1524 1525 1526 1527 1527 1527 1527 1528 1528 1529 1529 1529 1530 1530 1530 1529 1529 1529 1529 1529 1528 1528 1528 1528
1470 1474 1477 1482 1487 1491 1494 1497 1500 1502 1505 1507 1509 1511 1513 1515 1516 1518 1519 1521 1522 1523 1524 1524 1524 1525 1525 1526 1526 1527 1527 1527 1528 1527 1527 1527 1527 1526 1526 1526 1526 1525 1525
1470 1473 1477 1481 1486 1489 1492 1495 1498 1500 1502 1504 1506 1508 1510 1512 1513 1515 1516 1518 1519 1520 1520 1521 1522 1522 1523 1523 1523 1524 1525 1525 1525 1525 1525 1525 1524 1524 1523 1523 1523 1522 1522
1470 1473 1477 1480 1484 1487 1490 1492 1495 1497 1499 1501 1503 1505 1507 1509 1510 1512 1513 1514 1515 1516 1517 1518 1518 1519 1520 1520 1520 1521 1522 1522 1522 1522 1522 1522 1521 1521 1521 1520 1520 1520 1519
1471 1473 1476 1479 1482 1486 1488 1490 1492 1494 1496 1498 1500 1502 1503 1505 1507 1508 1509 1510 1511 1512 1513 1514 1515 1515 1516 1517 1518 1518 1519 1519 1519 1519 1519 1519 1519 1519 1518 1518 1517 1517 1516
1472 1474 1477 1479 1482 1484 1486 1488 1490 1492 1493 1495 1496 1498 1499 1501 1503 1504 1505 1506 1507 1508 1509 1510 1511 1512 1513 1514 1515 1515 1516 1516 1516 1516 1516 1516 1516 1516 1516 1515 1515 1514 1514
1474 1476 1478 1479 1481 1483 1485 1486 1487 1489 1490 1491 1493 1495 1496 1497 1498 1500 1502 1503 1504 1504 1505 1505 1507 1508 1509 1510 1511 1512 1513 1513 1513 1513 1513 1513 1513 1513 1513 1512 1512 1511 1511
1476 1476 1477 1479 1480 1481 1482 1483 1485 1486 1487 1488 1490 1491 1492 1493 1494 1495 1497 1498 1499 1500 1501 1502 1503 1504 1504 1505 1507 1509 1509 1509 1510 1510 1510 1510 1510 1510 1509 1509 1509 1508 1508
1475 1475 1477 1478 1479 1480 1481 1481 1482 1483 1484 1485 1486 1487 1488 1489 1491 1491 1492 1494 1495 1496 1497 1497 1498 1499 1500 1500 1502 1504 1505 1505 1506 1506 1507 1507 1507 1507 1506 1506 1505 1505 1505
1474 1475 1476 1477 1477 1478 1478 1479 1479 1480 1480 1481 1482 1483 1484 1485 1486 1487 1488 1490 1491 1492 1492 1493 1494 1495 1496 1497 1498 1500 1501 1501 1501 1502 1503 1504 1503 1504 1503 1503 1503 1502 1502
1473 1474 1475 1475 1476 1476 1476 1476 1476 1477 1477 1477 1478 1479 1479 1480 1482 1483 1484 1486 1487 1488 1489 1490 1491 1491 1492 1493 1494 1496 1497 1497 1498 1498 1499 1500 1500 1500 1500 1500 1500 1500 1499
1473 1473 1473 1473 1473 1473 1473 1473 1473 1473 1473 1474 1474 1475 1475 1475 1476 1478 1480 1480 1482 1483 1484 1486 1486 1487 1488 1489 1490 1492 1492 1493 1494 1494 1495 1495 1496 1497 1497 1497 1497 1497 1497
1471 1471 1471 1471 1471 1471 1470 1470 1470 1469 1470 1470 1471 1471 1471 1471 1472 1473 1475 1476 1477 1478 1478 1480 1481 1482 1484 1484 1486 1487 1489 1490 1490 1490 1491 1492 1493 1493 1493 1494 1494 1495 1495
1469 1469 1469 1468 1468 1468 1468 1467 1466 1466 1465 1466 1466 1467 1467 1467 1467 1468 1470 1471 1472 1474 1475 1476 1476 1478 1479 1480 1482 1483 1485 1485 1486 1487 1487 1489 1489 1490 1490 1491 1492 1492 1492
1467 1467 1467 1466 1465 1465 1464 1464 1463 1462 1462 1462 1462 1463 1463 1463 1463 1464 1465 1466 1467 1468 1469 1470 1471 1473 1475 1475 1477 1478 1480 1481 1482 1483 1484 1485 1486 1487 1487 1488 1488 1488 1489
1465 1465 1464 1463 1462 1462 1461 1460 1460 1460 1459 1459 1459 1459 1459 1459 1459 1460 1461 1461 1462 1464 1465 1466 1467 1469 1470 1471 1472 1474 1475 1477 1478 1479 1480 1481 1482 1483 1483 1484 1484 1485 1485
1462 1461 1461 1460 1459 1458 1457 1457 1456 1456 1456 1455 1456 1455 1456 1456 1456 1456 1456 1457 1459 1460 1462 1463 1464 1465 1466 1468 1469 1470 1472 1473 1475 1476 1476 1477 1478 1479 1480 1480 1481 1481 1482